H1 CPF 2 NER 2024 7 19 9 201 01 glonass127 H2 1106403 9127 37869 2024 7 19 0 0 0 2024 7 22 23 45 0 900 1 1 0 0 0 1 H9 10 0 60510 0.00000 0 -23631607.840 9556653.669 -1285591.020 10 0 60510 900.00000 0 -23537512.716 9698301.200 1932069.848 10 0 60510 1800.00000 0 -23081397.180 9657344.844 5112305.085 10 0 60510 2700.00000 0 -22297443.150 9389215.499 8193572.028 10 0 60510 3600.00000 0 -21230029.717 8857919.387 11116333.762 10 0 60510 4500.00000 0 -19931804.700 8037781.717 13824192.762 10 0 60510 5400.00000 0 -18461437.004 6914761.402 16264958.413 10 0 60510 6300.00000 0 -16881144.033 5487283.161 18391629.730 10 0 60510 7200.00000 0 -15254096.830 3766553.335 20163276.578 10 0 60510 8100.00000 0 -13641809.739 1776346.827 21545804.808 10 0 60510 9000.00000 0 -12101621.289 -447726.153 22512592.934 10 0 60510 9900.00000 0 -10684368.811 -2859443.990 23044990.128 10 0 60510 10800.00000 0 -9432351.047 -5403639.251 23132667.575 10 0 60510 11700.00000 0 -8377661.276 -8018239.394 22773817.392 10 0 60510 12600.00000 0 -7540958.613 -10636601.096 21975195.506 10 0 60510 13500.00000 0 -6930727.608 -13190044.775 20752007.123 10 0 60510 14400.00000 0 -6543056.805 -15610487.575 19127635.693 10 0 60510 15300.00000 0 -6361946.147 -17833068.474 17133218.659 10 0 60510 16200.00000 0 -6360131.711 -19798658.818 14807075.727 10 0 60510 17100.00000 0 -6500395.112 -21456155.270 12193997.994 10 0 60510 18000.00000 0 -6737304.711 -22764460.100 9344408.951 10 0 60510 18900.00000 0 -7019317.454 -23694065.600 6313411.073 10 0 60510 19800.00000 0 -7291154.383 -24228174.942 3159734.365 10 0 60510 20700.00000 0 -7496350.515 -24363310.381 -55394.164 10 0 60510 21600.00000 0 -7579871.371 -24109380.803 -3269438.856 10 0 60510 22500.00000 0 -7490684.538 -23489203.183 -6419778.463 10 0 60510 23400.00000 0 -7184175.494 -22537495.826 -9444939.199 10 0 60510 24300.00000 0 -6624302.702 -21299384.088 -12285812.357 10 0 60510 25200.00000 0 -5785397.449 -19828480.504 -14886830.752 10 0 60510 26100.00000 0 -4653528.687 -18184620.214 -17197078.787 10 0 60510 27000.00000 0 -3227371.621 -16431347.619 -19171312.044 10 0 60510 27900.00000 0 -1518540.095 -14633261.678 -20770864.324 10 0 60510 28800.00000 0 448633.748 -12853333.659 -21964422.477 10 0 60510 29700.00000 0 2637865.160 -11150312.108 -22728652.279 10 0 60510 30600.00000 0 5002196.637 -9576326.221 -23048662.114 10 0 60510 31500.00000 0 7485738.330 -8174789.954 -22918294.878 10 0 60510 32400.00000 0 10025795.461 -6978695.867 -22340242.436 10 0 60510 33300.00000 0 12555292.558 -6009370.501 -21325980.909 10 0 60510 34200.00000 0 15005391.596 -5275742.831 -19895529.014 10 0 60510 35100.00000 0 17308193.097 -4774154.856 -18077035.519 10 0 60510 36000.00000 0 19399406.039 -4488719.880 -15906205.453 10 0 60510 36900.00000 0 21220874.134 -4392210.395 -13425578.098 10 0 60510 37800.00000 0 22722852.747 -4447434.808 -10683672.756 10 0 60510 38700.00000 0 23865941.848 -4609041.617 -7734020.809 10 0 60510 39600.00000 0 24622595.510 -4825671.743 -4634104.757 10 0 60510 40500.00000 0 24978146.916 -5042365.507 -1444226.413 10 0 60510 41400.00000 0 24931308.615 -5203120.643 1773672.523 10 0 60510 42300.00000 0 24494130.076 -5253492.146 4957213.822 10 0 60510 43200.00000 0 23691417.367 -5143123.883 8044786.402 10 0 60510 44100.00000 0 22559642.061 -4828105.615 10976727.369 10 0 60510 45000.00000 0 21145387.295 -4273057.148 13696458.414 10 0 60510 45900.00000 0 19503397.528 -3452853.380 16151557.085 10 0 60510 46800.00000 0 17694314.082 -2353919.326 18294744.173 10 0 60510 47700.00000 0 15782190.714 -975042.211 20084770.377 10 0 60510 48600.00000 0 13831891.569 672332.401 21487187.564 10 0 60510 49500.00000 0 11906477.948 2564332.547 22474992.109 10 0 60510 50400.00000 0 10064690.158 4665410.728 23029130.007 10 0 60510 51300.00000 0 8358626.475 6929583.848 23138855.648 10 0 60510 52200.00000 0 6831713.042 9302112.908 22801938.381 10 0 60510 53100.00000 0 5517046.873 11721555.533 22024713.139 10 0 60510 54000.00000 0 4436179.194 14122109.391 20821973.663 10 0 60510 54900.00000 0 3598388.885 16436152.636 19216709.116 10 0 60510 55800.00000 0 3000476.274 18596878.958 17239687.244 10 0 60510 56700.00000 0 2627086.629 20540920.371 14928889.721 10 0 60510 57600.00000 0 2451551.192 22210850.397 12328807.867 10 0 60510 58500.00000 0 2437212.343 23557464.146 9489609.622 10 0 60510 59400.00000 0 2539179.105 24541739.916 6466191.375 10 0 60510 60300.00000 0 2706440.858 25136399.119 3317130.876 10 0 60510 61200.00000 0 2884251.293 25326997.133 103560.083 10 0 60510 62100.00000 0 3016682.412 25112496.791 -3112020.901 10 0 60510 63000.00000 0 3049240.125 24505297.513 -6266965.760 10 0 60510 63900.00000 0 2931429.321 23530716.213 -9299715.133 10 0 60510 64800.00000 0 2619157.553 22225939.531 -12151015.610 10 0 60510 65700.00000 0 2076872.615 20638489.778 -14765098.817 10 0 60510 66600.00000 0 1279340.125 18824268.419 -17090795.309 10 0 60510 67500.00000 0 212982.388 16845259.413 -19082559.162 10 0 60510 68400.00000 0 -1123281.406 14766990.045 -20701381.059 10 0 60510 69300.00000 0 -2717731.962 12655857.444 -21915569.994 10 0 60510 70200.00000 0 -4546098.660 10576435.048 -22701386.792 10 0 60510 71100.00000 0 -6572351.213 8588874.058 -23043515.982 10 0 60510 72000.00000 0 -8750001.493 6746510.621 -22935366.252 10 0 60510 72900.00000 0 -11023860.598 5093780.344 -22379193.644 10 0 60510 73800.00000 0 -13332176.566 3664528.053 -21386045.586 10 0 60510 74700.00000 0 -15609061.775 2480783.297 -19975527.804 10 0 60510 75600.00000 0 -17787106.798 1552051.604 -18175399.999 10 0 60510 76500.00000 0 -19800069.803 875149.066 -16021009.753 10 0 60510 77400.00000 0 -21585527.679 434584.274 -13554577.551 10 0 60510 78300.00000 0 -23087377.252 203468.134 -10824348.731 10 0 60510 79200.00000 0 -24258081.861 144909.623 -7883630.785 10 0 60510 80100.00000 0 -25060569.944 213835.142 -4789736.569 10 0 60510 81000.00000 0 -25469707.571 359151.514 -1602855.539 10 0 60510 81900.00000 0 -25473285.374 526158.790 1615123.834 10 0 60510 82800.00000 0 -25072481.042 659109.200 4801816.746 10 0 60510 83700.00000 0 -24281780.826 703803.285 7895546.258 10 0 60510 84600.00000 0 -23128365.979 610113.629 10836525.988 10 0 60510 85500.00000 0 -21650992.188 334330.463 13567999.220 10 0 60511 0.00000 0 -19898410.707 -158768.322 16037313.683 10 0 60511 900.00000 0 -17927397.079 -894208.519 18196914.391 10 0 60511 1800.00000 0 -15800472.057 -1885541.770 20005234.370 10 0 60511 2700.00000 0 -13583405.691 -3134051.641 21427472.894 10 0 60511 3600.00000 0 -11342608.913 -4628475.473 22436245.240 10 0 60511 4500.00000 0 -9142517.858 -6345253.829 23012094.891 10 0 60511 5400.00000 0 -7043076.889 -8249297.926 23143859.750 10 0 60511 6300.00000 0 -5097421.986 -10295244.842 22828886.374 10 0 60511 7200.00000 0 -3349858.028 -12429150.696 22073088.380 10 0 60511 8100.00000 0 -1834211.820 -14590554.461 20890847.445 10 0 60511 9000.00000 0 -572627.813 -16714829.886 19304757.588 10 0 60511 9900.00000 0 425143.993 -18735730.977 17345215.750 10 0 60511 10800.00000 0 1161938.119 -20588027.946 15049864.212 10 0 60511 11700.00000 0 1652832.813 -22210126.054 12462892.900 10 0 60511 12600.00000 0 1924291.181 -23546559.312 9634212.345 10 0 60511 13500.00000 0 2012818.512 -24550255.144 6618510.756 10 0 60511 14400.00000 0 1963190.512 -25184474.402 3474211.326 10 0 60511 15300.00000 0 1826325.641 -25424343.669 262348.484 10 0 60511 16200.00000 0 1656890.497 -25257912.974 -2954615.856 10 0 60511 17100.00000 0 1510739.450 -24686691.583 -6114013.077 10 0 60511 18000.00000 0 1442297.685 -23725636.224 -9154201.141 10 0 60511 18900.00000 0 1502000.207 -22402589.380 -12015784.879 10 0 60511 19800.00000 0 1733897.790 -20757189.128 -14642797.692 10 0 60511 20700.00000 0 2173534.295 -18839294.747 -16983819.201 10 0 60511 21600.00000 0 2846188.528 -16706993.648 -18993004.741 10 0 60511 22500.00000 0 3765558.385 -14424273.736 -20631004.351 10 0 60511 23400.00000 0 4932945.838 -12058459.992 -21865751.305 10 0 60511 24300.00000 0 6336979.583 -9677524.402 -22673103.184 10 0 60511 25200.00000 0 7953888.772 -7347383.784 -23037321.882 10 0 60511 26100.00000 0 9748317.133 -5129300.580 -22951382.601 10 0 60511 27000.00000 0 11674643.297 -3077496.907 -22417105.794 10 0 60511 27900.00000 0 13678751.208 -1237082.526 -21445109.956 10 0 60511 28800.00000 0 15700174.985 357616.410 -20054587.135 10 0 60511 29700.00000 0 17674526.677 1684258.813 -18272906.823 10 0 60511 30600.00000 0 19536103.414 2733171.749 -16135057.579 10 0 60511 31500.00000 0 21220563.048 3507489.151 -13682939.044 10 0 60511 32400.00000 0 22667554.980 4022743.632 -10964520.103 10 0 60511 33300.00000 0 23823195.300 4305932.252 -8032881.432 10 0 60511 34200.00000 0 24642282.520 4394099.321 -4945162.941 10 0 60511 35100.00000 0 25090161.879 4332499.540 -1761438.136 10 0 60511 36000.00000 0 25144161.535 4172422.044 1456461.491 10 0 60511 36900.00000 0 24794542.523 3968769.494 4646148.341 10 0 60511 37800.00000 0 24044925.056 3777495.942 7745883.296 10 0 60511 38700.00000 0 22912175.800 3653012.124 10695759.924 10 0 60511 39600.00000 0 21425763.119 3645667.370 13438846.229 10 0 60511 40500.00000 0 19626609.067 3799413.180 15922263.258 10 0 60511 41400.00000 0 17565487.158 4149745.326 18098181.668 10 0 60511 42300.00000 0 15301033.026 4722009.202 19924719.147 10 0 60511 43200.00000 0 12897450.185 5530137.901 21366723.810 10 0 60511 44100.00000 0 10422004.784 6575874.641 22396430.837 10 0 60511 45000.00000 0 7942411.216 7848511.404 22993981.770 10 0 60511 45900.00000 0 5524214.337 9325154.928 23147798.157 10 0 60511 46800.00000 0 3228273.869 10971510.022 22854803.456 10 0 60511 47700.00000 0 1108452.399 12743149.463 22120489.210 10 0 60511 48600.00000 0 -790399.680 14587220.214 20958823.842 10 0 60511 49500.00000 0 -2434080.667 16444517.984 19392004.615 10 0 60511 50400.00000 0 -3800228.638 18251846.923 17450055.681 10 0 60511 51300.00000 0 -4879017.932 19944569.137 15170277.624 10 0 60511 52200.00000 0 -5673331.551 21459240.178 12596556.414 10 0 60511 53100.00000 0 -6198401.148 22736222.118 9778542.408 10 0 60511 54000.00000 0 -6480928.109 23722165.610 6770712.734 10 0 60511 54900.00000 0 -6557720.891 24372256.634 3631333.017 10 0 60511 55800.00000 0 -6473904.370 24652132.203 421337.102 10 0 60511 56700.00000 0 -6280775.489 24539382.311 -2796854.346 10 0 60511 57600.00000 0 -6033395.286 24024571.996 -5960553.425 10 0 60511 58500.00000 0 -5788019.417 23111737.219 -9008038.258 10 0 60511 59400.00000 0 -5599477.188 21818330.587 -11879774.604 10 0 60511 60300.00000 0 -5518612.005 20174616.234 -14519600.034 10 0 60511 61200.00000 0 -5589894.285 18222537.094 -16875845.322 10 0 60511 62100.00000 0 -5849311.002 16014100.926 -18902368.821 10 0 60511 63000.00000 0 -6322624.298 13609352.333 -20559481.381 10 0 60511 63900.00000 0 -7024075.806 11074016.363 -21814741.672 10 0 60511 64800.00000 0 -7955593.970 8476913.651 -22643604.832 10 0 60511 65700.00000 0 -9106539.667 5887256.857 -23029910.600 10 0 60511 66600.00000 0 -10454001.988 3371943.362 -22966200.823 10 0 60511 67500.00000 0 -11963631.970 992959.034 -22453860.123 10 0 60511 68400.00000 0 -13590978.722 -1194997.260 -21503077.424 10 0 60511 69300.00000 0 -15283270.577 -3146568.577 -20132630.033 10 0 60511 70200.00000 0 -16981564.808 -4827388.755 -18369495.772 10 0 60511 71100.00000 0 -18623173.764 -6215257.541 -16248302.332 10 0 60511 72000.00000 0 -20144263.689 -7300794.953 -13810626.369 10 0 60511 72900.00000 0 -21482515.499 -8087550.479 -11104157.922 10 0 60511 73800.00000 0 -22579734.724 -8591566.035 -8181748.289 10 0 60511 74700.00000 0 -23384300.506 -8840414.910 -5100361.764 10 0 60511 75600.00000 0 -23853351.038 -8871760.923 -1919953.162 10 0 60511 76500.00000 0 -23954614.665 -8731501.978 1297705.775 10 0 60511 77400.00000 0 -23667811.281 -8471579.148 4490227.456 10 0 60511 78300.00000 0 -22985567.263 -8147545.773 7595813.363 10 0 60511 79200.00000 0 -21913807.787 -7816000.235 10554439.767 10 0 60511 80100.00000 0 -20471612.231 -7531990.868 13309002.038 10 0 60511 81000.00000 0 -18690540.592 -7346501.689 15806396.835 10 0 60511 81900.00000 0 -16613460.239 -7304123.439 17998523.162 10 0 60511 82800.00000 0 -14292922.502 -7441006.099 19843185.085 10 0 60511 83700.00000 0 -11789156.290 -7783176.955 21304881.162 10 0 60511 84600.00000 0 -9167760.897 -8345292.998 22355467.666 10 0 60511 85500.00000 0 -6497191.794 -9129878.716 22974684.977 10 0 60512 0.00000 0 -3846141.244 -10127080.496 23150538.689 10 0 60512 900.00000 0 -1280917.863 -11314948.838 22879529.209 10 0 60512 1800.00000 0 1137065.858 -12660236.451 22166725.674 10 0 60512 2700.00000 0 3353601.545 -14119682.758 21025682.670 10 0 60512 3600.00000 0 5323691.615 -15641732.619 19478199.859 10 0 60512 4500.00000 0 7013174.416 -17168621.086 17553927.515 10 0 60512 5400.00000 0 8399900.878 -18638740.116 15289823.174 10 0 60512 6300.00000 0 9474413.712 -19989191.083 12729467.230 10 0 60512 7200.00000 0 10240099.970 -21158418.374 9922247.968 10 0 60512 8100.00000 0 10712809.272 -22088814.962 6922429.249 10 0 60512 9000.00000 0 10919951.975 -22729190.806 3788116.703 10 0 60512 9900.00000 0 10899113.480 -23036999.451 580140.934 10 0 60512 10800.00000 0 10696241.515 -22980227.267 -2639121.446 10 0 60512 11700.00000 0 10363481.969 -22538863.036 -5806966.149 10 0 60512 12600.00000 0 9956754.452 -21705882.691 -8861594.436 10 0 60512 13500.00000 0 9533170.824 -20487704.311 -11743335.929 10 0 60512 14400.00000 0 9148407.361 -18904090.871 -14395835.251 10 0 60512 15300.00000 0 8854144.004 -16987502.077 -16767177.116 10 0 60512 16200.00000 0 8695681.715 -14781920.329 -18810925.499 10 0 60512 17100.00000 0 8709841.743 -12341199.000 -20487054.360 10 0 60512 18000.00000 0 8923238.631 -9727002.238 -21762749.749 10 0 60512 18900.00000 0 9351002.395 -7006423.036 -22613065.938 10 0 60512 19800.00000 0 9996005.852 -4249380.523 -23021421.655 10 0 60512 20700.00000 0 10848630.978 -1525906.904 -22979926.093 10 0 60512 21600.00000 0 11887084.581 1096560.912 -22489528.300 10 0 60512 22500.00000 0 13078249.631 3555770.532 -21559987.476 10 0 60512 23400.00000 0 14379035.311 5797015.099 -20209665.638 10 0 60512 24300.00000 0 15738167.346 7775167.370 -18465148.011 10 0 60512 25200.00000 0 17098341.280 9456302.645 -16360700.115 10 0 60512 26100.00000 0 18398646.052 10818844.270 -13937573.923 10 0 60512 27000.00000 0 19577153.953 11854186.315 -11243178.537 10 0 60512 27900.00000 0 20573566.480 12566770.532 -8330133.404 10 0 60512 28800.00000 0 21331803.760 12973618.047 -5255224.362 10 0 60512 29700.00000 0 21802428.299 13103339.299 -2078284.406 10 0 60512 30600.00000 0 21944801.518 12994667.633 1138977.823 10 0 60512 31500.00000 0 21728883.465 12694581.516 4334178.179 10 0 60512 32400.00000 0 21136601.648 12256097.104 7445462.188 10 0 60512 33300.00000 0 20162733.472 11735825.851 10412692.140 10 0 60512 34200.00000 0 18815267.233 11191400.809 13178593.890 10 0 60512 35100.00000 0 17115228.371 10678879.788 15689842.573 10 0 60512 36000.00000 0 15095979.562 10250233.580 17898068.084 10 0 60512 36900.00000 0 12802024.555 9951023.192 19760763.103 10 0 60512 37800.00000 0 10287365.462 9818361.579 21242078.492 10 0 60512 38700.00000 0 7613480.781 9879243.316 22313493.119 10 0 60512 39600.00000 0 4847006.352 10149310.401 22954347.308 10 0 60512 40500.00000 0 2057212.867 10632104.639 23152231.356 10 0 60512 41400.00000 0 -686618.550 11318837.413 22903222.774 10 0 60512 42300.00000 0 -3317817.161 12188686.924 22211968.089 10 0 60512 43200.00000 0 -5774834.438 13209611.810 21091607.268 10 0 60512 44100.00000 0 -8003545.545 14339649.260 19563541.100 10 0 60512 45000.00000 0 -9959247.089 15528646.044 17657044.239 10 0 60512 45900.00000 0 -11608269.506 16720352.947 15408729.028 10 0 60512 46800.00000 0 -12929137.399 17854797.790 12861867.806 10 0 60512 47700.00000 0 -13913229.002 18870839.967 10065584.063 10 0 60512 48600.00000 0 -14564906.096 19708800.939 7073925.509 10 0 60512 49500.00000 0 -14901107.282 20313060.904 3944834.789 10 0 60512 50400.00000 0 -14950419.818 20634511.964 739036.232 10 0 60512 51300.00000 0 -14751667.364 20632763.067 -2481140.647 10 0 60512 52200.00000 0 -14352071.691 20278001.346 -5652978.169 10 0 60512 53100.00000 0 -13805065.330 19552428.266 -8714603.640 10 0 60512 54000.00000 0 -13167847.617 18451206.521 -11606213.324 10 0 60512 54900.00000 0 -12498788.346 16982874.146 -14271261.474 10 0 60512 55800.00000 0 -11854790.551 15169205.139 -16657589.031 10 0 60512 56700.00000 0 -11288726.236 13044519.711 -18718467.556 10 0 60512 57600.00000 0 -10847056.193 10654471.295 -20413535.792 10 0 60512 58500.00000 0 -10567737.262 8054360.254 -21709608.473 10 0 60512 59400.00000 0 -10478507.997 5307044.922 -22581339.970 10 0 60512 60300.00000 0 -10595627.152 2480538.118 -23011728.615 10 0 60512 61200.00000 0 -10923119.604 -354609.122 -22992451.222 10 0 60512 62100.00000 0 -11452562.090 -3128025.715 -22524021.190 10 0 60512 63000.00000 0 -12163417.552 -5772225.627 -21615767.545 10 0 60512 63900.00000 0 -13023902.974 -8225185.780 -20285636.198 10 0 60512 64800.00000 0 -13992352.478 -10432688.537 -18559818.605 10 0 60512 65700.00000 0 -15019016.154 -12350331.181 -16472216.606 10 0 60512 66600.00000 0 -16048216.519 -13945119.401 -14063755.699 10 0 60512 67500.00000 0 -17020769.482 -15196580.117 -11381562.020 10 0 60512 68400.00000 0 -17876565.832 -16097349.770 -8478020.957 10 0 60512 69300.00000 0 -18557202.930 -16653216.736 -5409737.551 10 0 60512 70200.00000 0 -19008554.885 -16882619.794 -2236420.525 10 0 60512 71100.00000 0 -19183172.775 -16815627.485 980287.117 10 0 60512 72000.00000 0 -19042414.375 -16492444.758 4178007.306 10 0 60512 72900.00000 0 -18558214.942 -15961512.750 7294832.302 10 0 60512 73800.00000 0 -17714426.191 -15277283.832 10270513.167 10 0 60512 74700.00000 0 -16507669.037 -14497766.851 13047608.990 10 0 60512 75600.00000 0 -14947666.110 -13681946.123 15572576.054 10 0 60512 76500.00000 0 -13057041.511 -12887182.009 17796777.697 10 0 60512 77400.00000 0 -10870597.053 -12166700.863 19677397.514 10 0 60512 78300.00000 0 -8434095.263 -11567277.650 21178240.693 10 0 60512 79200.00000 0 -5802599.060 -11127206.155 22270410.363 10 0 60512 80100.00000 0 -3038435.520 -10874639.566 22932848.068 10 0 60512 81000.00000 0 -208865.880 -10826369.086 23152729.712 10 0 60512 81900.00000 0 2616444.604 -10987090.402 22925710.465 10 0 60512 82800.00000 0 5368055.353 -11349188.355 22256014.371 10 0 60512 83700.00000 0 7979372.144 -11893049.315 21156366.622 10 0 60512 84600.00000 0 10389156.208 -12587889.571 19647768.668 10 0 60512 85500.00000 0 12543819.145 -13393067.229 17759118.770 10 0 60513 0.00000 0 14399409.971 -14259825.124 15526683.197 10 0 60513 900.00000 0 15923213.426 -15133394.926 12993424.398 10 0 60513 1800.00000 0 17094890.479 -15955375.472 10208199.447 10 0 60513 2700.00000 0 17907115.776 -16666288.915 7224837.716 10 0 60513 3600.00000 0 18365681.312 -17208207.197 4101116.322 10 0 60513 4500.00000 0 18489061.073 -17527338.797 897650.473 10 0 60513 5400.00000 0 18307452.799 -17576465.724 -2323280.499 10 0 60513 6300.00000 0 17861335.454 -17317125.972 -5498948.754 10 0 60513 7200.00000 0 17199601.966 -16721446.508 -8567410.922 10 0 60513 8100.00000 0 16377345.515 -15773545.963 -11468733.106 10 0 60513 9000.00000 0 15453393.312 -14470444.251 -14146182.268 10 0 60513 9900.00000 0 14487693.078 -12822437.101 -16547358.484 10 0 60513 10800.00000 0 13538664.438 -10852916.464 -18625243.568 10 0 60513 11700.00000 0 12660629.591 -8597641.901 -20339143.403 10 0 60513 12600.00000 0 11901434.307 -6103491.923 -21655503.430 10 0 60513 13500.00000 0 11300362.137 -3426746.919 -22548579.768 10 0 60513 14400.00000 0 10886431.902 -630975.657 -23000951.595 10 0 60513 15300.00000 0 10677151.788 2215385.306 -23003864.157 10 0 60513 16200.00000 0 10677783.290 5041656.875 -22557395.606 10 0 60513 17100.00000 0 10881145.904 7777636.205 -21670444.796 10 0 60513 18000.00000 0 11267969.840 10356294.112 -20360541.164 10 0 60513 18900.00000 0 11807780.218 12716337.540 -18653481.654 10 0 60513 19800.00000 0 12460273.260 14804529.762 -16582803.335 10 0 60513 20700.00000 0 13177123.900 16577671.774 -14189103.772 10 0 60513 21600.00000 0 13904145.983 18004163.366 -11519224.313 10 0 60513 22500.00000 0 14583711.499 19065080.671 -8625314.080 10 0 60513 23400.00000 0 15157324.781 19754727.893 -5563794.761 10 0 60513 24300.00000 0 15568241.633 20080643.446 -2394247.933 10 0 60513 25200.00000 0 15764022.201 20063063.867 821752.167 10 0 60513 26100.00000 0 15698909.942 19733871.573 4021836.826 10 0 60513 27000.00000 0 15335937.170 19135073.895 7144048.393 10 0 60513 27900.00000 0 14648669.766 18316879.907 10128030.006 10 0 60513 28800.00000 0 13622519.273 17335457.614 12916177.190 10 0 60513 29700.00000 0 12255568.957 16250466.521 15454730.395 10 0 60513 30600.00000 0 10558880.688 15122468.984 17694789.180 10 0 60513 31500.00000 0 8556270.820 14010327.869 19593230.586 10 0 60513 32400.00000 0 6283564.814 12968697.758 21113516.339 10 0 60513 33300.00000 0 3787361.200 12045712.488 22226375.705 10 0 60513 34200.00000 0 1123355.032 11280963.323 22910352.954 10 0 60513 35100.00000 0 -1645711.661 10703850.008 23152210.663 10 0 60513 36000.00000 0 -4452390.180 10332371.751 22947182.250 10 0 60513 36900.00000 0 -7227062.418 10172407.525 22299069.359 10 0 60513 37800.00000 0 -9900573.365 10217515.433 21220181.931 10 0 60513 38700.00000 0 -12406852.980 10449260.142 19731121.046 10 0 60513 39600.00000 0 -14685421.528 10838056.063 17860407.007 10 0 60513 40500.00000 0 -16683676.483 11344493.025 15643957.533 10 0 60513 41400.00000 0 -18358867.166 11921091.286 13124423.523 10 0 60513 42300.00000 0 -19679675.159 12514414.612 10350392.499 10 0 60513 43200.00000 0 -20627333.915 13067454.753 7375472.519 10 0 60513 44100.00000 0 -21196239.373 13522188.448 4257272.079 10 0 60513 45000.00000 0 -21394023.999 13822199.776 1056294.120 10 0 60513 45900.00000 0 -21241088.998 13915256.865 -2165235.330 10 0 60513 46800.00000 0 -20769612.229 13755732.670 -5344581.352 10 0 60513 47700.00000 0 -20022071.874 13306765.165 -8419732.871 10 0 60513 48600.00000 0 -19049347.032 12542062.534 -11330628.716 10 0 60513 49500.00000 0 -17908475.065 11447273.522 -14020351.261 10 0 60513 50400.00000 0 -16660160.826 10020861.328 -16436262.131 10 0 60513 51300.00000 0 -15366144.330 8274440.727 -18531055.515 10 0 60513 52200.00000 0 -14086539.742 6232561.168 -20263706.188 10 0 60513 53100.00000 0 -12877260.344 3931942.724 -21600291.668 10 0 60513 54000.00000 0 -11787640.406 1420195.660 -22514670.762 10 0 60513 54900.00000 0 -10858356.262 -1245923.249 -22989004.031 10 0 60513 55800.00000 0 -10119735.821 -4002644.222 -23014105.302 10 0 60513 56700.00000 0 -9590528.594 -6781617.619 -22589617.248 10 0 60513 57600.00000 0 -9277188.084 -9512543.679 -21724007.976 10 0 60513 58500.00000 0 -9173695.958 -12125887.529 -20434389.542 10 0 60513 59400.00000 0 -9261933.750 -14555564.810 -18746163.194 10 0 60513 60300.00000 0 -9512584.169 -16741484.962 -16692499.786 10 0 60513 61200.00000 0 -9886521.272 -18631845.717 -14313667.308 10 0 60513 62100.00000 0 -10336627.947 -20185083.528 -11656220.517 10 0 60513 63000.00000 0 -10809961.156 -21371399.808 -8772070.374 10 0 60513 63900.00000 0 -11250171.019 -22173801.278 -5717453.233 10 0 60513 64800.00000 0 -11600069.588 -22588613.738 -2551821.484 10 0 60513 65700.00000 0 -11804239.583 -22625450.991 663321.508 10 0 60513 66600.00000 0 -11811572.398 -22306643.644 3865618.575 10 0 60513 67500.00000 0 -11577628.531 -21666155.057 6993064.442 10 0 60513 68400.00000 0 -11066721.796 -20748032.759 9985196.719 10 0 60513 69300.00000 0 -10253640.910 -19604462.478 12784249.834 10 0 60513 70200.00000 0 -9124937.633 -18293507.673 15336250.920 10 0 60513 71100.00000 0 -7679728.937 -16876629.598 17592038.251 10 0 60513 72000.00000 0 -5929980.818 -15416091.154 19508184.690 10 0 60513 72900.00000 0 -3900262.546 -13972351.615 21047810.712 10 0 60513 73800.00000 0 -1626981.513 -12601559.020 22181273.685 10 0 60513 74700.00000 0 842870.368 -11353242.459 22886722.277 10 0 60513 75600.00000 0 3453408.356 -10268297.998 23150507.084 10 0 60513 76500.00000 0 6141916.985 -9377349.963 22967440.787 10 0 60513 77400.00000 0 8841200.058 -8699554.166 22340903.303 10 0 60513 78300.00000 0 11482124.516 -8241891.949 21282789.663 10 0 60513 79200.00000 0 13996256.066 -7998984.327 19813300.593 10 0 60513 80100.00000 0 16318480.282 -7953434.667 17960578.104 10 0 60513 81000.00000 0 18389502.799 -8076686.969 15760190.896 10 0 60513 81900.00000 0 20158126.286 -8330365.735 13254476.852 10 0 60513 82800.00000 0 21583210.026 -8668043.405 10491752.638 10 0 60513 83700.00000 0 22635230.031 -9037363.202 7525403.079 10 0 60513 84600.00000 0 23297373.308 -9382429.701 4412865.697 10 0 60513 85500.00000 0 23566118.513 -9646367.395 1214528.424 99